Tracking 29892 objects as of 21-Nov-2024
HD Live streaming from Space Station
objects crossing your sky now

USA 237

Track USA 237 now!
USA 237 is classified as:


NORAD ID: 38528
Int'l Code: 2012-034A
Perigee: 35,618.2 km
Apogee: 35,970.3 km
Inclination: 5.9 °
Period: 1,436.1 minutes
Semi major axis: 42165 km
RCS: Unknown
Launch date: June 29, 2012
Source: United States (US)
Launch site: AIR FORCE EASTERN TEST RANGE (AFETR)

NROL-15 is a classified mission for the National Reconnaissance Office.
Your satellite tracking list
Your tracking list is empty




NASA's NSSDC Master Catalog

Two Line Element Set (TLE):
1 38528U 12034A   24306.92213973 0.00000000  00000-0  00000-0 0    00
2 38528   5.9056  64.6382 0041753   2.0391 358.0039  1.00270000    05
Source of the keplerian elements: McCants